Orbital Elements at Epoch 2459200.5 (2020-Dec-17.0) TDB
Reference: JPL 19 (heliocentric ecliptic J2000)
Element | Value | Uncertainty (1-sigma) | Units |
e | .1377480218239422 | 4.8312e-08 | |
a | 2.755624171465665 | 1.6565e-08 | au |
q | 2.37604239295603 | 1.3485e-07 | au |
i | 12.61706795198229 | 5.471e-06 | deg |
node | 27.59449927206484 | 2.0053e-05 | deg |
peri | 343.2696426292759 | 2.5645e-05 | deg |
M | 346.2831561905601 | 1.6957e-05 | deg |
tp | 2459264.161973568020 (2021-Feb-18.66197357) | 7.8945e-05 | TDB |
period | 1670.815152733235 4.57 | 1.5066e-05 4.125e-08 | d yr |
n | .2154636911277033 | 1.9429e-09 | deg/d |
Q | 3.1352059499753 | 1.8847e-08 | au |
|
| | Orbit Determination Parameters
Additional Information
|